Montreal Mirabel, Ontario

8:49 AM EDT on March 30, 2017 (GMT -0400)
Montreal International (Mirabel)

Weather History for CYMX - February, 2012

Change the Weather History Date:

Monday, February 6, 2012

  Actual Average Record
Temperature  
Mean Temperature 32 °F -  
Max Temperature 35 °F 21 °F 35 °F (2011)
Min Temperature 28 °F 4 °F -16 °F (2015)
Degree Days  
Heating Degree Days 34    
Moisture  
Dew Point 27 °F    
Average Humidity 77    
Maximum Humidity 81    
Minimum Humidity 70    
Precipitation  
Precipitation 0.00 in - - ()
Sea Level Pressure  
Sea Level Pressure 29.85 in    
Wind  
Wind Speed 10 mph ()    
Max Wind Speed 15 mph    
Max Gust Speed 26 mph    
Averages and records for this station are not official NWS values.
T = Trace of Precipitation, MM = Missing Value Source: Averaged Metar Reports

Daily Weather History Graph

Daily Weather History Graph

Search for Another Location

Airport or City:

Trip Planner

Search our weather history database for the weather conditions in past years. The results will help you decide how hot, cold, wet, or windy it might be!

Date:

Astronomy

Feb. 06, 2012 Rise Set
Actual Time 7:11 AM EST 5:09 PM EST
Civil Twilight 6:40 AM EST 5:40 PM EST
Nautical Twilight 6:05 AM EST 6:15 PM EST
Astronomical Twilight 5:30 AM EST 6:50 PM EST
Moon 4:09 PM EST (2/6) 6:03 AM EST (2/6)
Length of Visible Light 10h 59m
Length of Day
9h 57m
Waxing Gibbous, 98% of the Moon is Illuminated
Feb 6
Waxing Gibbous
Feb 7
Full
Feb 14
Last Quarter
Feb 21
New
Feb 29
First Quarter

Hourly Weather History & Observations

Time (EST) Temp. Windchill Dew Point Humidity Pressure Visibility Wind Dir Wind Speed Gust Speed Precip Events Conditions
12:00 AM 28.4 °F 18.0 °F 23.0 °F 80% 29.91 in 25.0 mi WSW 12.7 mph 24.2 mph N/A   Overcast
1:00 AM 28.4 °F 19.1 °F 23.0 °F 80% 29.89 in 25.0 mi SW 10.4 mph 19.6 mph N/A   Overcast
2:00 AM 30.2 °F 19.8 °F 24.8 °F 80% 29.88 in 25.0 mi WSW 13.8 mph 21.9 mph N/A   Overcast
3:00 AM 30.2 °F 21.3 °F 24.8 °F 80% 29.88 in 25.0 mi WSW 10.4 mph 19.6 mph N/A   Overcast
4:00 AM 32.0 °F 22.5 °F 26.6 °F 80% 29.87 in 25.0 mi WSW 12.7 mph 24.2 mph N/A   Overcast
5:00 AM 32.0 °F 22.5 °F 26.6 °F 80% 29.86 in 25.0 mi WSW 12.7 mph 24.2 mph N/A   Overcast
6:00 AM 32.0 °F 22.5 °F 26.6 °F 80% 29.84 in 25.0 mi WSW 12.7 mph 26.5 mph N/A   Overcast
7:00 AM 32.0 °F 21.6 °F 26.6 °F 80% 29.84 in 25.0 mi WSW 15.0 mph 24.2 mph N/A   Overcast
8:00 AM 32.0 °F 21.6 °F 26.6 °F 80% 29.84 in 40.0 mi WSW 15.0 mph 24.2 mph N/A   Overcast
9:00 AM 32.0 °F 22.5 °F 26.6 °F 80% 29.83 in 25.0 mi WSW 12.7 mph 20.7 mph N/A   Overcast
10:00 AM 32.0 °F 22.1 °F 26.6 °F 80% 29.83 in 25.0 mi WSW 13.8 mph 20.7 mph N/A   Overcast
11:00 AM 33.8 °F 23.9 °F 26.6 °F 75% 29.83 in 25.0 mi WSW 15.0 mph 26.5 mph N/A   Overcast
12:00 PM 33.8 °F 24.8 °F 28.4 °F 81% 29.81 in 25.0 mi WSW 12.7 mph 21.9 mph N/A   Overcast
1:00 PM 35.6 °F 28.0 °F 28.4 °F 75% 29.80 in 25.0 mi WSW 10.4 mph - N/A   Overcast
2:00 PM 35.6 °F 28.6 °F 28.4 °F 75% 29.79 in 25.0 mi WSW 9.2 mph 17.3 mph N/A   Overcast
3:00 PM 35.6 °F 29.9 °F 28.4 °F 75% 29.80 in 40.0 mi WSW 6.9 mph - N/A   Overcast
4:00 PM 35.6 °F 29.9 °F 28.4 °F 75% 29.81 in 40.0 mi WSW 6.9 mph - N/A   Overcast
5:00 PM 35.6 °F 30.7 °F 28.4 °F 75% 29.82 in 25.0 mi WSW 5.8 mph - N/A   Overcast
6:00 PM 35.6 °F 30.7 °F 28.4 °F 75% 29.84 in 25.0 mi West 5.8 mph - N/A   Overcast
7:00 PM 35.6 °F 32.8 °F 28.4 °F 75% 29.86 in 25.0 mi West 3.5 mph - N/A   Overcast
8:00 PM 35.6 °F 30.7 °F 28.4 °F 75% 29.86 in 25.0 mi West 5.8 mph - N/A   Overcast
9:00 PM 33.8 °F 27.7 °F 26.6 °F 75% 29.86 in 25.0 mi West 6.9 mph - N/A   Overcast
10:00 PM 35.6 °F 31.7 °F 26.6 °F 70% 29.88 in 25.0 mi West 4.6 mph - N/A   Overcast
11:00 PM 35.6 °F 30.7 °F 26.6 °F 70% 29.88 in 25.0 mi West 5.8 mph - N/A   Overcast